DW5400 Weather Reports


time (UTC)temp
F
wind
direction
speed
knots
gust
knots
rain 1hr
in
rain 24hr
in
rain mn
in
humidity
%
barometer
mb
20260506044512 54 360 0.0 0.0 0.00 0.14 0.00 87 1002.9
20260506042512 54 360 0.0 0.0 0.00 0.14 0.00 87 1002.9
20260506041512 54 360 0.0 0.0 0.00 0.14 0.00 87 1002.9
20260506035511 53 360 0.0 0.0 0.00 0.14 0.00 87 1002.9
20260506034511 53 360 0.0 0.0 0.00 0.14 0.00 87 1002.9
20260506033511 53 360 0.0 0.0 0.00 0.14 0.00 87 1002.9
20260506032511 53 360 0.0 0.0 0.00 0.14 0.00 87 1002.9
20260506031511 53 360 0.0 0.0 0.00 0.14 0.00 86 1002.9
20260506030511 53 360 0.0 0.0 0.00 0.14 0.00 86 1003.0
20260506025512 53 360 0.0 0.0 0.00 0.14 0.00 86 1003.0
20260506023511 53 360 0.0 0.0 0.00 0.14 0.00 86 1003.0
20260506021511 53 360 0.0 0.0 0.00 0.14 0.00 86 1003.0
20260506020511 53 360 0.0 0.0 0.00 0.14 0.00 85 1003.0
20260506015511 53 360 0.0 0.0 0.00 0.14 0.00 85 1002.9
20260506014510 53 360 0.0 0.0 0.00 0.14 0.00 85 1002.9
20260506013511 53 360 0.0 0.0 0.00 0.14 0.00 85 1002.9
20260506012510 54 360 0.0 0.0 0.00 0.14 0.00 85 1002.9
20260506011511 54 360 0.0 0.0 0.00 0.14 0.00 85 1004.0
20260506010510 54 360 0.0 0.0 0.00 0.14 0.00 85 1004.0
20260506004510 54 360 0.0 0.0 0.00 0.14 0.00 85 1003.9
20260506003510 54 360 0.0 0.0 0.00 0.14 0.00 86 1002.8
20260506002510 53 360 0.0 0.0 0.00 0.14 0.00 86 1002.9
20260506001510 54 360 0.0 0.0 0.00 0.14 0.00 86 1004.0
20260506000510 53 360 0.0 0.0 0.00 0.14 0.00 86 1004.0
20260505235510 53 360 0.0 0.0 0.00 0.14 0.00 86 1004.0
20260505234510 53 360 0.0 0.0 0.00 0.14 0.00 86 1004.0
20260505232510 53 360 0.0 0.0 0.00 0.14 0.00 86 1004.0
20260505230510 53 360 0.0 0.0 0.00 0.14 0.00 86 1004.0
20260505225509 53 360 0.0 0.0 0.00 0.14 0.00 86 1004.0
20260505224509 53 360 0.0 0.0 0.00 0.14 0.00 86 1004.0
20260505222510 53 360 0.0 0.0 0.00 0.14 0.00 86 1004.0
20260505220509 53 360 0.0 0.0 0.00 0.14 0.00 86 1004.0
20260505215509 53 360 0.0 0.0 0.00 0.14 0.14 86 1004.1
20260505214509 53 360 0.0 0.0 0.00 0.14 0.14 85 1004.1
20260505213509 53 360 0.0 0.0 0.00 0.14 0.14 85 1004.0
20260505212509 53 360 0.0 0.0 0.00 0.14 0.14 85 1004.0
20260505210509 53 360 0.0 0.0 0.00 0.14 0.14 85 1004.1
20260505205509 53 360 0.0 0.0 0.00 0.14 0.14 85 1004.1
20260505204509 53 360 0.0 0.0 0.00 0.14 0.14 85 1004.1
20260505203509 52 360 0.0 0.0 0.02 0.14 0.14 84 1004.2
20260505202514 52 360 0.0 0.0 0.02 0.14 0.14 84 1004.2
20260505201514 53 360 0.0 0.0 0.04 0.14 0.14 84 1004.1
20260505200514 53 360 0.0 0.0 0.06 0.14 0.14 83 1004.1
20260505195514 53 360 0.0 0.0 0.08 0.14 0.14 83 1004.1
20260505193513 54 360 0.0 0.0 0.10 0.12 0.12 82 1003.9
20260505192513 54 360 0.0 0.0 0.12 0.12 0.12 81 1003.9
20260505191513 54 360 0.0 0.0 0.10 0.10 0.10 80 1003.9
20260505190513 55 360 0.0 0.0 0.08 0.08 0.08 79 1004.9
20260505185513 55 360 0.0 0.0 0.06 0.06 0.06 78 1004.8
20260505184513 55 360 0.0 0.0 0.04 0.04 0.04 77 1004.8
20260505183513 56 360 0.0 0.0 0.02 0.02 0.02 75 1004.7
20260505182513 58 360 0.0 0.0 0.00 0.00 0.00 73 1004.5
20260505181513 60 360 0.0 0.0 0.00 0.00 0.00 72 1004.1
20260505180513 60 360 0.0 0.0 0.00 0.00 0.00 73 1003.0
20260505173513 61 360 0.0 0.0 0.00 0.00 0.00 72 1001.8
20260505172513 62 360 0.0 0.0 0.00 0.00 0.00 71 1001.8
20260505171513 62 360 0.0 0.0 0.00 0.00 0.00 71 1001.8
20260505170513 62 360 0.0 0.0 0.00 0.00 0.00 69 1001.7
20260505165513 62 360 0.0 0.0 0.00 0.00 0.00 68 1001.6
20260505164513 63 360 0.0 0.0 0.00 0.00 0.00 68 1002.7
20260505162513 64 360 0.0 0.0 0.00 0.00 0.00 66 1002.5
20260505161512 64 360 0.0 0.0 0.00 0.00 0.00 66 1002.5
20260505160512 64 360 0.0 0.0 0.00 0.00 0.00 65 1002.5
20260505152512 66 360 0.0 0.0 0.00 0.00 0.00 61 1002.2
20260505151512 67 360 0.0 0.0 0.00 0.00 0.00 60 1002.1
20260505150512 67 360 0.0 0.0 0.00 0.00 0.00 59 1002.1
20260505124511 70 360 0.0 0.0 0.00 0.00 0.00 55 1002.7
20260505123511 70 360 0.0 0.0 0.00 0.00 0.00 57 1003.8
20260505121512 69 360 0.0 0.0 0.00 0.00 0.00 56 1003.9
20260505115511 70 360 0.0 0.0 0.00 0.00 0.00 56 1003.8
20260505114511 70 360 0.0 0.0 0.00 0.00 0.00 58 1002.8
20260505113511 70 360 0.0 0.0 0.00 0.00 0.00 57 1003.9
20260505111511 69 360 0.0 0.0 0.00 0.00 0.00 57 1003.9
20260505110511 69 360 0.0 0.0 0.00 0.00 0.00 60 1004.0
20260505101511 67 360 0.0 0.0 0.00 0.00 0.00 63 1004.2
20260505095511 66 360 0.0 0.0 0.00 0.00 0.00 64 1004.4
20260505094510 66 360 0.0 0.0 0.00 0.00 0.00 63 1004.4
20260505093510 66 360 0.0 0.0 0.00 0.00 0.00 64 1004.4
20260505092510 66 360 0.0 0.0 0.00 0.00 0.00 64 1005.4
20260505091510 67 360 0.0 0.0 0.00 0.00 0.00 63 1005.3
20260505090510 67 360 0.0 0.0 0.00 0.00 0.00 65 1005.3
20260505085510 66 360 0.0 0.0 0.00 0.00 0.00 68 1005.4
20260505084510 65 360 0.0 0.0 0.00 0.00 0.00 70 1005.6
20260505083510 64 360 0.0 0.0 0.00 0.00 0.00 71 1005.8
20260505082510 63 360 0.0 0.0 0.00 0.00 0.00 71 1005.8
20260505081510 63 360 0.0 0.0 0.00 0.00 0.00 72 1005.9
20260505080510 62 360 0.0 0.0 0.00 0.00 0.00 72 1006.0
20260505075510 62 360 0.0 0.0 0.00 0.00 0.00 72 1005.9
20260505074510 62 360 0.0 0.0 0.00 0.00 0.00 73 1005.9
20260505073510 62 360 0.0 0.0 0.00 0.00 0.00 74 1006.0
20260505071510 60 360 0.0 0.0 0.00 0.00 0.00 79 1006.3
20260505070510 59 360 0.0 0.0 0.00 0.00 0.00 82 1006.5
20260505065509 58 360 0.0 0.0 0.00 0.00 0.00 84 1006.6
20260505064509 57 360 0.0 0.0 0.00 0.00 0.00 85 1006.7
20260505063510 56 360 0.0 0.0 0.00 0.00 0.00 86 1006.9
20260505062509 55 360 0.0 0.0 0.00 0.00 0.00 86 1007.0
20260505061509 54 360 0.0 0.0 0.00 0.00 0.00 86 1007.1
20260505060509 54 360 0.0 0.0 0.00 0.00 0.00 86 1007.1
20260505055509 54 360 0.0 0.0 0.00 0.00 0.00 86 1007.2
20260505053509 53 360 0.0 0.0 0.00 0.00 0.00 86 1008.3
20260505052509 53 360 0.0 0.0 0.00 0.00 0.00 85 1007.3
20260505051509 53 360 0.0 0.0 0.00 0.00 0.00 85 1007.3
20260505050509 53 360 0.0 0.0 0.00 0.00 0.00 84 1007.3